Highgate, VT

4:18 PM EST on November 22, 2019 (GMT -0500)
Franklin County State

Weather History for KFSO - September, 2019

Change the Weather History Date:

Thursday, September 5, 2019

  Actual Average (KPBG) Record (KPBG)
Temperature  
Mean Temperature 60 °F -  
Max Temperature 72 °F 75 °F 95 °F (1959)
Min Temperature 49 °F 55 °F 39 °F (1963)
Degree Days  
Heating Degree Days 4    
Growing Degree Days 10 (Base 50)    
Moisture  
Dew Point 52 °F    
Average Humidity 75    
Maximum Humidity 96    
Minimum Humidity 41    
Precipitation  
Precipitation 0.00 in - - ()
Sea Level Pressure  
Sea Level Pressure 30.09 in    
Wind  
Wind Speed 1 mph (WSW)    
Max Wind Speed 7 mph    
Max Gust Speed -    
Visibility 10 miles    
Events      
Averages and records for this station are not official NWS values.
T = Trace of Precipitation, MM = Missing Value Source: NWS Daily Summary

Daily Weather History Graph

Daily Weather History Graph

Search for Another Location

Airport or City:

Astronomy

Sep. 05, 2019 Rise Set
Actual Time 6:18 AM EDT 7:22 PM EDT
Civil Twilight 5:48 AM EDT 7:52 PM EDT
Nautical Twilight 5:12 AM EDT 8:28 PM EDT
Astronomical Twilight 4:35 AM EDT 9:05 PM EDT
Moon 1:40 PM EDT (9/5) 11:17 PM EDT (9/5)
Length of Visible Light 14h 03m
Length of Day
13h 03m
Waxing Crescent, 45% of the Moon is Illuminated
Sep 5
Waxing Crescent
Sep 5
First Quarter
Sep 14
Full
Sep 21
Last Quarter
Sep 28
New

Hourly Weather History & Observations

Time (EDT) Temp. Dew Point Humidity Pressure Visibility Wind Dir Wind Speed Gust Speed Precip Events Conditions
12:16 AM 59.9 °F 50.4 °F 71% 30.05 in 10.0 mi Calm Calm - N/A   Overcast
12:36 AM 59.0 °F 52.0 °F 78% 30.05 in 10.0 mi Calm Calm - N/A   Overcast
12:55 AM 58.5 °F 52.3 °F 80% 30.05 in 10.0 mi Calm Calm - N/A   Overcast
1:16 AM 58.1 °F 52.5 °F 82% 30.05 in 10.0 mi Calm Calm - N/A   Overcast
1:35 AM 57.7 °F 52.9 °F 84% 30.06 in 10.0 mi Calm Calm - N/A   Overcast
1:56 AM 58.3 °F 52.9 °F 82% 30.06 in 10.0 mi Calm Calm - N/A   Overcast
2:15 AM 57.9 °F 53.1 °F 84% 30.06 in 10.0 mi Calm Calm - N/A   Overcast
2:36 AM 57.7 °F 52.9 °F 84% 30.06 in 10.0 mi Calm Calm - N/A   Overcast
2:55 AM 57.4 °F 52.9 °F 85% 30.06 in 10.0 mi Calm Calm - N/A   Overcast
3:15 AM 56.5 °F 52.7 °F 87% 30.06 in 10.0 mi Calm Calm - N/A   Mostly Cloudy
3:36 AM 54.9 °F 52.5 °F 92% 30.06 in 10.0 mi Calm Calm - N/A   Clear
3:55 AM 54.0 °F 52.0 °F 93% 30.06 in 10.0 mi Calm Calm - N/A   Clear
4:15 AM 52.9 °F 51.4 °F 95% 30.06 in 10.0 mi Calm Calm - N/A   Clear
4:35 AM 52.5 °F 51.1 °F 95% 30.07 in 10.0 mi Calm Calm - N/A   Clear
4:56 AM 52.7 °F 51.3 °F 95% 30.07 in 10.0 mi Calm Calm - N/A   Mostly Cloudy
5:35 AM 50.5 °F 49.3 °F 95% 30.08 in 10.0 mi Calm Calm - N/A   Clear
5:55 AM 50.4 °F 49.1 °F 95% 30.09 in 10.0 mi Calm Calm - N/A   Clear
6:35 AM 49.5 °F 48.2 °F 95% 30.10 in 10.0 mi Calm Calm - N/A   Clear
6:56 AM 50.0 °F 48.9 °F 96% 30.11 in 10.0 mi Calm Calm - N/A   Clear
7:15 AM 51.1 °F 50.0 °F 96% 30.11 in 10.0 mi Calm Calm - N/A   Clear
7:36 AM 53.2 °F 52.0 °F 95% 30.11 in 10.0 mi Calm Calm - N/A   Clear
7:55 AM 55.4 °F 54.1 °F 96% 30.11 in 10.0 mi Calm Calm - N/A   Clear
8:16 AM 56.3 °F 55.0 °F 96% 30.12 in 10.0 mi Calm Calm - N/A   Clear
8:36 AM 57.4 °F 54.3 °F 90% 30.13 in 10.0 mi Calm Calm - N/A   Clear
8:56 AM 59.7 °F 54.7 °F 83% 30.13 in 10.0 mi Calm Calm - N/A   Clear
9:15 AM 60.1 °F 54.5 °F 82% 30.14 in 10.0 mi Calm Calm - N/A   Clear
9:35 AM 62.1 °F 54.0 °F 75% 30.14 in 10.0 mi Calm Calm - N/A   Scattered Clouds
9:55 AM 63.0 °F 53.6 °F 71% 30.13 in 10.0 mi Calm Calm - N/A   Scattered Clouds
10:15 AM 61.2 °F 53.6 °F 76% 30.13 in 10.0 mi Calm Calm - N/A   Scattered Clouds
10:36 AM 60.4 °F 54.0 °F 79% 30.13 in 10.0 mi Calm Calm - N/A   Scattered Clouds
10:55 AM 65.5 °F 50.7 °F 59% 30.13 in 10.0 mi Calm Calm - N/A   Scattered Clouds
11:16 AM 65.3 °F 50.4 °F 58% 30.14 in 10.0 mi WNW 3.5 mph - N/A   Scattered Clouds
11:35 AM 65.7 °F 48.4 °F 54% 30.13 in 10.0 mi SW 4.6 mph - N/A   Clear
11:56 AM 66.4 °F 50.0 °F 56% 30.13 in 10.0 mi SW 6.9 mph - N/A   Clear
12:15 PM 67.1 °F 48.9 °F 52% 30.13 in 10.0 mi West 3.5 mph - N/A   Clear
12:36 PM 67.3 °F 47.7 °F 49% 30.12 in 10.0 mi WSW 5.8 mph - N/A   Clear
12:55 PM 68.5 °F 50.0 °F 52% 30.12 in 10.0 mi WSW 4.6 mph - N/A   Clear
1:15 PM 68.7 °F 49.5 °F 50% 30.12 in 10.0 mi WNW 4.6 mph - N/A   Clear
1:36 PM 69.6 °F 49.8 °F 49% 30.11 in 10.0 mi Calm Calm - N/A   Clear
1:55 PM 69.4 °F 49.5 °F 49% 30.11 in 10.0 mi NW 3.5 mph - N/A   Clear
2:16 PM 71.1 °F 50.2 °F 48% 30.10 in 10.0 mi SSW 3.5 mph - N/A   Scattered Clouds
2:35 PM 71.4 °F 50.2 °F 47% 30.10 in 10.0 mi Calm Calm - N/A   Clear
2:56 PM 71.1 °F 48.6 °F 45% 30.09 in 10.0 mi NNE 3.5 mph - N/A   Clear
3:15 PM 72.7 °F 49.6 °F 44% 30.09 in 10.0 mi East 5.8 mph - N/A   Scattered Clouds
3:36 PM 71.1 °F 48.9 °F 45% 30.08 in 10.0 mi Calm Calm - N/A   Scattered Clouds
3:55 PM 72.5 °F 47.7 °F 41% 30.07 in 10.0 mi Calm Calm - N/A   Scattered Clouds
4:15 PM 71.6 °F 48.9 °F 45% 30.07 in 10.0 mi Calm Calm - N/A   Clear
4:36 PM 72.1 °F 48.9 °F 44% 30.08 in 10.0 mi Calm Calm - N/A   Clear
4:55 PM 71.8 °F 50.2 °F 46% 30.08 in 10.0 mi North 4.6 mph - N/A   Clear
5:16 PM 71.6 °F 49.1 °F 45% 30.07 in 10.0 mi Calm Calm - N/A   Clear
5:35 PM 71.6 °F 50.7 °F 48% 30.08 in 10.0 mi Calm Calm - N/A   Clear
5:56 PM 70.9 °F 51.6 °F 50% 30.08 in 10.0 mi Calm Calm - N/A   Clear
6:16 PM 70.2 °F 53.2 °F 55% 30.08 in 10.0 mi Calm Calm - N/A   Clear
6:36 PM 68.9 °F 52.9 °F 57% 30.08 in 10.0 mi Calm Calm - N/A   Clear
6:55 PM 64.6 °F 54.9 °F 71% 30.08 in 10.0 mi Calm Calm - N/A   Clear
7:16 PM 61.7 °F 55.2 °F 79% 30.09 in 10.0 mi Calm Calm - N/A   Clear
7:35 PM 60.4 °F 54.9 °F 82% 30.09 in 10.0 mi Calm Calm - N/A   Clear
7:55 PM 59.7 °F 56.1 °F 88% 30.09 in 10.0 mi Calm Calm - N/A   Clear
8:16 PM 59.0 °F 56.7 °F 92% 30.09 in 10.0 mi Calm Calm - N/A   Clear
8:35 PM 58.1 °F 56.3 °F 94% 30.09 in 10.0 mi Calm Calm - N/A   Clear
8:56 PM 57.2 °F 55.8 °F 95% 30.09 in 10.0 mi Calm Calm - N/A   Clear
9:15 PM 56.1 °F 54.7 °F 95% 30.10 in 10.0 mi Calm Calm - N/A   Clear
9:35 PM 56.1 °F 54.7 °F 95% 30.10 in 10.0 mi SE 3.5 mph - N/A   Clear
9:55 PM 56.1 °F 54.7 °F 95% 30.09 in 10.0 mi Calm Calm - N/A   Clear
10:16 PM 55.2 °F 54.0 °F 96% 30.09 in 10.0 mi Calm Calm - N/A   Clear
10:35 PM 54.7 °F 53.6 °F 96% 30.09 in 10.0 mi Calm Calm - N/A   Clear
10:56 PM 54.7 °F 53.4 °F 96% 30.08 in 10.0 mi Calm Calm - N/A   Clear
11:15 PM 54.7 °F 53.4 °F 96% 30.09 in 10.0 mi SE 3.5 mph - N/A   Clear
11:36 PM 54.9 °F 53.6 °F 96% 30.08 in 10.0 mi Calm Calm - N/A   Clear
11:55 PM 54.7 °F 53.6 °F 96% 30.08 in 10.0 mi Calm Calm - N/A   Clear